Miscellaneous Local Product
Issued by NWS Hastings, NE

Home | Current Version | Previous Version | Text Only | Print | Product List | Glossary Off
Versions: 1 2 3 4 5 6 7 8 9 10 11 12 13 14 15 16 17 18 19 20 21 22 23 24 25 26 27 28 29 30 31 32 33 34 35 36 37 38 39 40 41 42 43 44 45 46 47 48 49 50

000
AXUS43 KGID 290302
MISGRI

GID CWA HOURLY WEATHER ROUNDUP
NATIONAL WEATHER SERVICE HASTINGS NE
1000 PM CDT SAT MAR 28 2015

NOTE: "FAIR" INDICATES FEW OR NO CLOUDS BELOW 12,000 FEET WITH NO
SIGNIFICANT WEATHER AND/OR OBSTRUCTIONS TO VISIBILITY.

...SOUTH CENTRAL NEBRASKA...

CITY           SKY/WX    TMP DP  RH WIND       PRES   REMARKS
GRAND ISLAND   CLEAR     50  34  54 SE17G25   29.88F
HASTINGS       CLEAR     52  35  52 SE18      29.88F
KEARNEY        CLEAR     54  36  50 SE17G23   29.85F
ORD            CLEAR     53  33  46 SE16      29.81F
YORK           PTCLDY    46  36  66 SE16      29.92F
AURORA         CLEAR     48  33  55 SE16      29.90S
LEXINGTON      CLEAR     57  37  46 SE17      29.81F
HOLDREGE       CLEAR     55  36  49 SE20G25   29.84S
HEBRON         CLEAR     49  33  53 SE13      29.95F

...NEBRASKA PANHANDLE...

CITY           SKY/WX    TMP DP  RH WIND       PRES   REMARKS
CHADRON        PTCLDY    67  31  26 W21G26    29.72R
ALLIANCE       PTCLDY    66  24  20 W14       29.75R
SCOTTSBLUFF    PTCLDY    71  22  15 W18       29.79R
SIDNEY         MOCLDY    69  24  18 W16       29.84R

...WESTERN AND NORTH CENTRAL NEBRASKA...

CITY           SKY/WX    TMP DP  RH WIND       PRES   REMARKS
VALENTINE      PTCLDY    65  36  34 S33G41    29.61F
AINSWORTH      CLEAR     60  35  39 S26G35    29.68F
ONEILL         CLEAR     52  36  54 S21G26    29.77F
BROKEN BOW     CLEAR     57  36  45 SE12      29.81S
IMPERIAL         N/A     68  22  17 S10       29.78R
NORTH PLATTE   PTCLDY    63  36  36 SE14G20   29.77F
MCCOOK         PTCLDY    65  36  34 S16       29.80R

...EASTERN NEBRASKA...

CITY           SKY/WX    TMP DP  RH WIND       PRES   REMARKS
NORFOLK        CLEAR     48  34  58 SE23G30   29.87F
SO SIOUX CITY  CLEAR     46  30  53 S14       29.95F
TEKAMAH        CLEAR     44  30  57 SE14      29.98S
COLUMBUS       CLEAR     46  32  57 SE16      29.94F
ALBION         CLEAR     47  33  58 SE18      29.87F
OMAHA EPPLEY   CLEAR     46  32  58 S21       30.01S
OFFUTT AFB     CLEAR     44  32  63 SE10      30.02R
MILLARD        CLEAR     46  33  60 SE13      30.01R
LINCOLN        CLEAR     48  34  58 S18G25    29.99F
NEBRASKA CITY  CLEAR     44  30  57 SE13      30.04R
BEATRICE       CLEAR     46  33  60 SE15G21   30.00S
FALLS CITY     CLEAR     42  31  64 SE9       30.06S

...NORTHERN KANSAS...

CITY           SKY/WX    TMP DP  RH WIND       PRES   REMARKS
GOODLAND       CLEAR     65  27  23 S15       29.87R
HILL CITY      CLEAR     62  40  44 S15       29.87F
NORTON         CLEAR     59  34  38 SE14G21   29.84F
PHILLIPSBURG   CLEAR     59  39  47 SE12      29.88F
SMITH CENTER   CLEAR     54  37  54 SE18G25   29.90F
BELOIT         CLEAR     54  36  50 SE14G20   29.93S
HAYS           CLEAR     57  37  47 SE14      29.92R
RUSSELL        CLEAR     56  40  55 SE20      29.90F
CONCORDIA      CLEAR     52  36  54 SE20      29.96F
SALINA         CLEAR     56  39  53 SE13      29.98F
TOPEKA         CLEAR     45  33  63 SE10      30.09R



USA.gov is the U.S. government's official web portal to all federal, state and local government web resources and services.